Location: College Park
(38.9810°N, 76.9370°W)
Time: 05:03:34
(UTC-05:00)

Tiangong 1 - Pass Details

Date: 15 February 2018
Orbit: 248 x 271 km, 42.8° (Epoch: 19 February)

Event Time Altitude Azimuth Distance (km) Brightness Sun altitude
Exits shadow 05:56:53 25° 321° (NW) 564 1.5 -12.7°
Maximum altitude 05:57:46 37° 11° (N) 417 1.3 -12.5°
Drops below altitude 10° 05:59:58 10° 83° (E) 1,044 4.6 -12.1°
Sets 06:01:56 0° 92° (E) 1,853 6.7 -11.7°
